Lexington Weather

Lexington, Massachusetts, USA

68°F
9/23/2021 5:05am 
  • Lexington Conditions: Mostly cloudy
  • Temperature: 67.6°F / 19.8°CWarmer 1.0°F than last hour.
  • Dew Point: 66.7°FIncreased 1.4°Fsince last hour.
  • Relative Humidity: 97%Increased 1.0% since last hour.
  • Wind: Calm, 10-min avg: Calm, gust: 4 mph
  • Barometer: 30.03 in Steady
  • Visibility: 10 miles
  • Rain Today: 0.00 in
  •   

Regional Weather Roundup
for Boston / Norton, MA

        
000
ASUS41 KBOX 191904
RWRBOX

REGIONAL WEATHER ROUNDUP
NATIONAL WEATHER SERVICE BOSTON/NORTON MA
300 PM EDT SUN SEP 19 2021

NOTE:  "FAIR" INDICATES FEW OR NO CLOUDS BELOW 12,000 FEET WITH NO 
SIGNIFICANT WEATHER AND/OR OBSTRUCTIONS TO VISIBILITY.

MAZALL-192000-
EASTERN MASSACHUSETTS
  
CITY           SKY/WX    TMP DP  RH WIND       PRES   REMARKS
BOSTON         MOSUNNY   71  51  49 E12       30.14F                  
BEVERLY        SUNNY     71  54  54 E5        30.13F                  
LAWRENCE       SUNNY     72  51  47 NW5       30.16F                  
BEDFORD        MOSUNNY   73  53  49 N8        30.13F                  
BLUE HILL      NOT AVBL                                               
NORWOOD        SUNNY     73  51  46 VRB5      30.14F                  
MARSHFIELD     SUNNY     70  48  46 N10G17    30.15S                  
PLYMOUTH       SUNNY     70  48  45 N14       30.15S                  
TAUNTON        SUNNY     72  49  44 VRB7      30.14F                  
NEW BEDFORD    SUNNY     72  50  45 N6G16     30.14S                  
$$

MAZALL-192000-
CAPE COD AND THE ISLANDS
  
CITY           SKY/WX    TMP DP  RH WIND       PRES   REMARKS
FALMOUTH       NOT AVBL                                               
HYANNIS        SUNNY     69  55  60 N15G22    30.11S                  
CHATHAM        SUNNY     68  52  56 N9G21     30.13S                  
PROVINCETOWN   SUNNY     67  54  63 N17       30.15S                  
NANTUCKET      SUNNY     71  54  54 N20       30.12R                  
MARTHAS VNYRD  SUNNY     72  48  42 N15       30.13R                  
$$
 
MAZALL-192000-
CENTRAL AND WESTERN MASSACHUSETTS
  
CITY           SKY/WX    TMP DP  RH WIND       PRES   REMARKS
WORCESTER      SUNNY     69  50  50 E3        30.17F                  
FITCHBURG      SUNNY     73  46  38 MISG      30.15F                  
ORANGE         SUNNY     75  48  38 NW8       30.16F                  
SPRINGFIELD    MOSUNNY   74  49  40 NW6       30.14F                  
WESTFIELD      SUNNY     75  49  39 NE9       30.16F                  
NORTH ADAMS    SUNNY     71  52  50 N7        30.18S                  
PITTSFIELD     SUNNY     70  51  51 VRB3      30.17F                  
$$
 
RIZALL-192000-
RHODE ISLAND
  
CITY           SKY/WX    TMP DP  RH WIND       PRES   REMARKS
PROVIDENCE     MOSUNNY   74  52  46 NE7       30.15S                  
NEWPORT        SUNNY     71  50  47 N10       30.15R                  
BLOCK ISLAND   SUNNY     70  53  54 NE10G16   30.15S                  
SMITHFIELD     SUNNY     71  52  50 NW6       30.16S                  
WESTERLY       SUNNY     73  52  47 N5        30.14S                  
$$
 
CTZALL-192000-
CONNECTICUT
  
CITY           SKY/WX    TMP DP  RH WIND       PRES   REMARKS
BRADLEY INTL   MOSUNNY   74  46  36 N8G17     30.16S                  
HARTFORD       SUNNY     75  49  39 N8        30.15S                  
BRIDGEPORT     SUNNY     76  48  37 NE8       30.15F                  
DANBURY        SUNNY     76  50  40 NE5       30.17F                  
GROTON         MOSUNNY   76  54  46 N7        30.14S                  
NEW HAVEN      MOSUNNY   77  49  37 NE10      30.15F                  
CHESTER        FAIR      75  54  46 N7        30.16S                  
MERIDEN        SUNNY     75  47  36 N7        30.16S                  
WILLIMANTIC    SUNNY     73  49  42 VRB5      30.15S                  
OXFORD         SUNNY     72  50  45 E7        30.18S                  
$$

MEZ002-015-021-024-NHZ003-005-008-011-012-014-VTZ005-008-192000-
NORTHERN NEW ENGLAND
  
CITY           SKY/WX    TMP DP  RH WIND       PRES   REMARKS
PORTLAND ME    SUNNY     71  47  42 NW8       30.13F                  
BANGOR ME      MOSUNNY   70  45  40 N14       30.11F                  
CONCORD NH     SUNNY     75  49  39 VRB5      30.13F                  
MANCHESTER NH  MOSUNNY   75  45  34 NW8       30.12F                  
NASHUA NH      SUNNY     73  50  44 NW6       30.15F                  
PORTSMOUTH NH  MOSUNNY   74  43  32 NW7       30.14F                  
JAFFREY NH     SUNNY     72  50  45 CALM      30.16F                  
KEENE NH       SUNNY     72  49  44 NW8       30.16F                  
BURLINGTON VT  MOSUNNY   67  46  47 N7        30.22S                  
MT. WASHINGTON MOSUNNY   46  27  46 N6          N/A                   
$$

NYZ052-076-192000-
EASTERN NEW YORK
  
CITY           SKY/WX    TMP DP  RH WIND       PRES   REMARKS
ALBANY         MOSUNNY   68  51  54 N6        30.20F                  
NEW YORK CITY  MOSUNNY   77  49  37 N3        30.15S                  
$$
 
ANZALL-192000-
MARINE OBSERVATIONS
  
STATION/POSITION TIME  TEMP    WIND        PRES    VSBY  WAVE
                       AIR SEA DIR/SP/G                  HT/PER
                 (UTC) (F)     (DEG/KT/KT) (MB)    (MI)  (FT/S)
BOSTON BUOY      1840      66   20/ 12/ 14 1021.2F
BUZZARDS BAY     1800           40/ 17/ 18 1021.4S
NANTUCKET SOUND  1840   67 72  350/ 17/ 23 1020.0S
MASS BAY-STELLWA 1804   64      10/ 12/ 14 1020.7R  1 7/8  5/ 6
ISLE OF SHOALS   1800   64      60/  6/  7 1020.6F
S OF BLOCK IS    1826      71                N/A           4/10
$$

......................KEY.........................
  SKY/WX - SKY CONDITION/PRESENT WEATHER
  TMP    - TEMPERATURE IN FAHRENHEIT
  DWPT   - DEWPOINT IN FAHRENHEIT
  RH     - RELATIVE HUMIDITY IN PERCENT
  WIND   - DIRECTION AND SPEED IN MPH
  PRES   - MEAN SEA LEVEL PRESSURE IN INCHES OF HG
  WCI    - WIND CHILL INDEX
  VSB    - VISIBILITY IN MILES
  HX     - HEAT INDEX
  TC     - TEMPERATURE IN CELSIUS
  VRB    - VARIABLE WIND DIRECTION
  N/A    - NOT AVAILABLE
  
      

Other recent Regional Weather Roundups

Thu Sep 23, 4:04am

Thu Sep 23, 3:04am

Thu Sep 23, 2:04am

Thu Sep 23, 1:04am

Thu Sep 23, 12:04am

Wed Sep 22, 11:04pm

Wed Sep 22, 10:04pm

Wed Sep 22, 9:04pm

Wed Sep 22, 8:04pm

Wed Sep 22, 7:04pm

Wed Sep 22, 6:04pm

Wed Sep 22, 5:04pm

Wed Sep 22, 4:04pm

Wed Sep 22, 3:04pm

Wed Sep 22, 2:04pm

Wed Sep 22, 1:04pm

Wed Sep 22, 12:05pm

Wed Sep 22, 11:04am

Wed Sep 22, 10:04am

Wed Sep 22, 9:04am

Wed Sep 22, 8:04am

Wed Sep 22, 7:04am

Wed Sep 22, 6:04am

Wed Sep 22, 5:04am

Wed Sep 22, 4:04am

Wed Sep 22, 3:04am

Wed Sep 22, 2:04am

Wed Sep 22, 1:04am

Wed Sep 22, 12:04am

Tue Sep 21, 11:04pm

Tue Sep 21, 10:04pm

Tue Sep 21, 9:04pm

Tue Sep 21, 8:04pm

Tue Sep 21, 7:04pm

Tue Sep 21, 6:04pm

Tue Sep 21, 5:04pm

Tue Sep 21, 4:04pm

Tue Sep 21, 3:04pm

Tue Sep 21, 2:04pm

Tue Sep 21, 1:04pm

Tue Sep 21, 12:04pm

Tue Sep 21, 11:04am

Tue Sep 21, 10:04am

Tue Sep 21, 9:04am

Tue Sep 21, 8:04am

Tue Sep 21, 7:04am

Tue Sep 21, 6:04am

Tue Sep 21, 5:04am

Tue Sep 21, 4:04am

Tue Sep 21, 3:04am

Tue Sep 21, 2:04am

Tue Sep 21, 1:04am

Tue Sep 21, 12:04am

Mon Sep 20, 11:04pm

Mon Sep 20, 10:04pm

Mon Sep 20, 9:04pm

Mon Sep 20, 8:04pm

Mon Sep 20, 7:04pm

Mon Sep 20, 6:04pm

Mon Sep 20, 5:04pm

Mon Sep 20, 4:04pm

Mon Sep 20, 3:04pm

Mon Sep 20, 2:04pm

Mon Sep 20, 1:04pm

Mon Sep 20, 12:04pm

Mon Sep 20, 11:04am

Mon Sep 20, 10:04am

Mon Sep 20, 9:04am

Mon Sep 20, 7:04am

Mon Sep 20, 6:04am

Mon Sep 20, 5:04am

Mon Sep 20, 4:04am

Mon Sep 20, 3:04am

Mon Sep 20, 2:04am

Mon Sep 20, 1:04am

Mon Sep 20, 12:04am

Sun Sep 19, 11:04pm

Sun Sep 19, 10:04pm

Sun Sep 19, 9:04pm

Sun Sep 19, 8:04pm

Sun Sep 19, 7:04pm

Sun Sep 19, 6:04pm

Sun Sep 19, 5:04pm

Sun Sep 19, 4:04pm

Sun Sep 19, 2:05pm

Sun Sep 19, 1:04pm

Sun Sep 19, 12:04pm

Sun Sep 19, 11:04am

Sun Sep 19, 10:05am

Sun Sep 19, 9:04am

Sun Sep 19, 8:04am

Sun Sep 19, 7:04am

Sun Sep 19, 6:04am

Sun Sep 19, 5:04am

Sun Sep 19, 4:04am

Sun Sep 19, 3:04am

Sun Sep 19, 2:04am

Sun Sep 19, 1:04am

Sun Sep 19, 12:04am

Sat Sep 18, 11:05pm

Sat Sep 18, 10:04pm

Sat Sep 18, 9:04pm

Sat Sep 18, 8:04pm

Sat Sep 18, 7:04pm

Sat Sep 18, 6:04pm

Sat Sep 18, 5:04pm

Sat Sep 18, 4:04pm

Sat Sep 18, 3:04pm

Sat Sep 18, 2:04pm

Sat Sep 18, 1:04pm

Sat Sep 18, 12:04pm

Sat Sep 18, 11:04am

Sat Sep 18, 10:04am

Sat Sep 18, 9:04am

Sat Sep 18, 8:04am

Sat Sep 18, 7:04am

Sat Sep 18, 6:04am

Sat Sep 18, 5:04am

Sat Sep 18, 4:04am

Sat Sep 18, 3:04am

Sat Sep 18, 2:04am

Sat Sep 18, 1:04am

Sat Sep 18, 12:04am

Fri Sep 17, 11:04pm

Fri Sep 17, 10:04pm

Fri Sep 17, 9:04pm

Fri Sep 17, 8:04pm

Fri Sep 17, 7:04pm

Fri Sep 17, 6:04pm

Fri Sep 17, 5:04pm

Fri Sep 17, 4:04pm

Fri Sep 17, 3:04pm

Fri Sep 17, 2:04pm

Fri Sep 17, 1:04pm

Fri Sep 17, 12:05pm

Fri Sep 17, 11:04am

Fri Sep 17, 10:04am

Fri Sep 17, 9:04am

Fri Sep 17, 8:04am

Fri Sep 17, 7:04am

Fri Sep 17, 6:04am

Fri Sep 17, 5:04am

Fri Sep 17, 4:04am

Fri Sep 17, 3:04am

Fri Sep 17, 2:04am

Fri Sep 17, 1:04am

Fri Sep 17, 12:04am

Thu Sep 16, 11:04pm

Thu Sep 16, 10:04pm

Thu Sep 16, 9:04pm

Thu Sep 16, 8:04pm

Thu Sep 16, 7:04pm

Thu Sep 16, 6:04pm

Thu Sep 16, 5:04pm

Thu Sep 16, 4:04pm

Thu Sep 16, 3:04pm

Thu Sep 16, 2:04pm

Thu Sep 16, 1:05pm

Thu Sep 16, 12:04pm

Thu Sep 16, 11:05am

Thu Sep 16, 10:05am

Thu Sep 16, 9:04am

Thu Sep 16, 8:04am

Thu Sep 16, 7:04am

Thu Sep 16, 6:04am

Thu Sep 16, 5:04am

Meta data:

ID: ae7b49ea-4eec-45a3-9414-9d9fb71ea9c8
Link: https://api.weather.gov/products/ae7b49ea-4eec-45a3-9414-9d9fb71ea9c8